Time,TemperatureF,DewpointF,PressureIn,WindDirection,WindDirectionDegrees,WindSpeedMPH,WindSpeedGustMPH,Humidity,HourlyPrecipIn,Conditions,Clouds,dailyrainin,SoftwareType,DateUTC
2013-09-16 00:04:00,77.0,33.0,29.78,WSW,255,9.0,12.0,20,0.00,,,0.00,weatherlink.com 1.10,2013-09-16 07:04:00,
2013-09-16 00:19:00,76.7,33.0,29.78,WSW,248,8.0,12.0,20,0.00,,,0.00,weatherlink.com 1.10,2013-09-16 07:19:00,
2013-09-16 00:34:00,76.4,34.0,29.78,West,270,10.0,13.0,21,0.00,,,0.00,weatherlink.com 1.10,2013-09-16 07:34:00,
2013-09-16 00:49:00,76.1,35.0,29.78,West,262,9.0,13.0,22,0.00,,,0.00,weatherlink.com 1.10,2013-09-16 07:49:00,
2013-09-16 01:04:00,76.0,33.0,29.78,West,262,7.0,11.0,21,0.00,,,0.00,weatherlink.com 1.10,2013-09-16 08:04:00,
2013-09-16 01:19:00,75.6,33.0,29.78,West,270,5.0,10.0,21,0.00,,,0.00,weatherlink.com 1.10,2013-09-16 08:19:00,
2013-09-16 01:34:00,75.6,33.0,29.79,WNW,283,4.0,9.0,21,0.00,,,0.00,weatherlink.com 1.10,2013-09-16 08:34:00,
2013-09-16 01:49:00,75.5,33.0,29.78,West,277,4.0,8.0,21,0.00,,,0.00,weatherlink.com 1.10,2013-09-16 08:49:00,
2013-09-16 02:04:00,75.6,32.0,29.78,West,275,5.0,9.0,20,0.00,,,0.00,weatherlink.com 1.10,2013-09-16 09:04:00,
2013-09-16 02:19:00,75.6,32.0,29.78,West,273,4.0,9.0,20,0.00,,,0.00,weatherlink.com 1.10,2013-09-16 09:19:00,
2013-09-16 02:34:00,74.6,31.0,29.78,West,270,2.0,5.0,20,0.00,,,0.00,weatherlink.com 1.10,2013-09-16 09:34:00,
2013-09-16 02:49:00,74.4,32.0,29.77,West,262,3.0,6.0,21,0.00,,,0.00,weatherlink.com 1.10,2013-09-16 09:49:00,
2013-09-16 03:04:00,75.2,30.0,29.77,West,266,8.0,10.0,19,0.00,,,0.00,weatherlink.com 1.10,2013-09-16 10:04:00,
2013-09-16 03:19:00,75.4,30.0,29.78,WSW,257,4.0,9.0,19,0.00,,,0.00,weatherlink.com 1.10,2013-09-16 10:19:00,
2013-09-16 03:34:00,74.7,30.0,29.78,West,278,2.0,6.0,19,0.00,,,0.00,weatherlink.com 1.10,2013-09-16 10:34:00,
2013-09-16 03:49:00,74.0,30.0,29.78,WSW,255,1.0,5.0,20,0.00,,,0.00,weatherlink.com 1.10,2013-09-16 10:49:00,
2013-09-16 04:04:00,73.9,29.0,29.78,WSW,247,3.0,4.0,19,0.00,,,0.00,weatherlink.com 1.10,2013-09-16 11:04:00,
2013-09-16 04:19:00,73.1,30.0,29.78,West,266,3.0,4.0,20,0.00,,,0.00,weatherlink.com 1.10,2013-09-16 11:19:00,
2013-09-16 04:34:00,73.6,29.0,29.79,WSW,248,2.0,5.0,19,0.00,,,0.00,weatherlink.com 1.10,2013-09-16 11:34:00,
2013-09-16 04:49:00,73.5,29.0,29.79,WSW,255,2.0,4.0,19,0.00,,,0.00,weatherlink.com 1.10,2013-09-16 11:49:00,
2013-09-16 05:04:00,73.2,28.0,29.79,SW,234,4.0,5.0,19,0.00,,,0.00,weatherlink.com 1.10,2013-09-16 12:04:00,
2013-09-16 05:19:00,73.9,28.0,29.79,WSW,255,3.0,6.0,18,0.00,,,0.00,weatherlink.com 1.10,2013-09-16 12:19:00,
2013-09-16 05:34:00,73.2,28.0,29.79,WSW,247,5.0,7.0,19,0.00,,,0.00,weatherlink.com 1.10,2013-09-16 12:34:00,
2013-09-16 05:49:00,73.0,30.0,29.80,WSW,251,6.0,6.0,20,0.00,,,0.00,weatherlink.com 1.10,2013-09-16 12:49:00,
2013-09-16 06:04:00,72.8,28.0,29.80,West,259,3.0,5.0,19,0.00,,,0.00,weatherlink.com 1.10,2013-09-16 13:04:00,
2013-09-16 06:19:00,73.0,28.0,29.80,WSW,247,4.0,6.0,19,0.00,,,0.00,weatherlink.com 1.10,2013-09-16 13:19:00,
2013-09-16 06:34:00,72.4,28.0,29.80,WSW,256,3.0,5.0,19,0.00,,,0.00,weatherlink.com 1.10,2013-09-16 13:34:00,
2013-09-16 06:50:00,72.4,29.0,29.81,SW,232,3.0,5.0,20,0.00,,,0.00,weatherlink.com 1.10,2013-09-16 13:50:00,
2013-09-16 07:05:00,73.3,29.0,29.81,SW,235,2.0,5.0,19,0.00,,,0.00,weatherlink.com 1.10,2013-09-16 14:05:00,
2013-09-16 07:20:00,74.9,30.0,29.81,WSW,254,5.0,5.0,19,0.00,,,0.00,weatherlink.com 1.10,2013-09-16 14:20:00,
2013-09-16 07:35:00,76.3,31.0,29.81,WSW,238,0.0,5.0,19,0.00,,,0.00,weatherlink.com 1.10,2013-09-16 14:35:00,
2013-09-16 07:50:00,78.2,31.0,29.82,West,278,0.0,6.0,18,0.00,,,0.00,weatherlink.com 1.10,2013-09-16 14:50:00,
2013-09-16 08:05:00,78.5,32.0,29.82,WNW,296,0.0,3.0,18,0.00,,,0.00,weatherlink.com 1.10,2013-09-16 15:05:00,
2013-09-16 08:20:00,78.7,32.0,29.82,WNW,290,2.0,8.0,18,0.00,,,0.00,weatherlink.com 1.10,2013-09-16 15:20:00,
2013-09-16 08:35:00,79.4,31.0,29.82,West,261,2.0,8.0,17,0.00,,,0.00,weatherlink.com 1.10,2013-09-16 15:35:00,
2013-09-16 08:50:00,80.3,32.0,29.83,West,259,2.0,9.0,17,0.00,,,0.00,weatherlink.com 1.10,2013-09-16 15:50:00,
2013-09-16 09:05:00,80.7,30.0,29.82,ESE,122,4.0,7.0,16,0.00,,,0.00,weatherlink.com 1.10,2013-09-16 16:05:00,
2013-09-16 09:20:00,81.6,30.0,29.83,WSW,248,1.0,6.0,15,0.00,,,0.00,weatherlink.com 1.10,2013-09-16 16:20:00,
2013-09-16 09:35:00,83.4,29.0,29.83,West,269,2.0,11.0,14,0.00,,,0.00,weatherlink.com 1.10,2013-09-16 16:35:00,
2013-09-16 09:50:00,83.6,30.0,29.83,West,271,8.0,9.0,14,0.00,,,0.00,weatherlink.com 1.10,2013-09-16 16:50:00,
2013-09-16 10:05:00,83.6,31.0,29.83,South,174,2.0,8.0,15,0.00,,,0.00,weatherlink.com 1.10,2013-09-16 17:05:00,
2013-09-16 10:20:00,83.4,29.0,29.83,WNW,293,1.0,12.0,14,0.00,,,0.00,weatherlink.com 1.10,2013-09-16 17:20:00,
2013-09-16 10:35:00,84.6,30.0,29.83,NE,34,4.0,8.0,14,0.00,,,0.00,weatherlink.com 1.10,2013-09-16 17:35:00,
2013-09-16 10:50:00,85.4,31.0,29.83,SW,214,2.0,13.0,14,0.00,,,0.00,weatherlink.com 1.10,2013-09-16 17:50:00,
2013-09-16 11:05:00,85.7,31.0,29.83,WSW,255,1.0,15.0,14,0.00,,,0.00,weatherlink.com 1.10,2013-09-16 18:05:00,
2013-09-16 11:20:00,86.4,32.0,29.83,West,259,3.0,13.0,14,0.00,,,0.00,weatherlink.com 1.10,2013-09-16 18:20:00,
2013-09-16 11:35:00,87.1,32.0,29.82,West,274,3.0,12.0,14,0.00,,,0.00,weatherlink.com 1.10,2013-09-16 18:35:00,
2013-09-16 11:50:00,87.4,33.0,29.82,East,80,2.0,15.0,14,0.00,,,0.00,weatherlink.com 1.10,2013-09-16 18:50:00,
2013-09-16 12:05:00,87.0,34.0,29.82,SW,232,6.0,19.0,15,0.00,,,0.00,weatherlink.com 1.10,2013-09-16 19:05:00,
2013-09-16 12:20:00,87.0,34.0,29.81,WNW,285,5.0,16.0,15,0.00,,,0.00,weatherlink.com 1.10,2013-09-16 19:20:00,
2013-09-16 12:35:00,87.3,36.0,29.82,West,281,7.0,15.0,16,0.00,,,0.00,weatherlink.com 1.10,2013-09-16 19:35:00,
2013-09-16 12:50:00,88.1,35.0,29.81,WSW,241,9.0,18.0,15,0.00,,,0.00,weatherlink.com 1.10,2013-09-16 19:50:00,
2013-09-16 13:05:00,88.6,37.0,29.80,SW,214,3.0,14.0,16,0.00,,,0.00,weatherlink.com 1.10,2013-09-16 20:05:00,
2013-09-16 13:20:00,87.8,36.0,29.80,West,263,4.0,18.0,16,0.00,,,0.00,weatherlink.com 1.10,2013-09-16 20:20:00,
2013-09-16 13:35:00,88.4,37.0,29.79,NW,304,11.0,20.0,16,0.00,,,0.00,weatherlink.com 1.10,2013-09-16 20:35:00,
2013-09-16 13:50:00,88.3,37.0,29.79,WNW,290,16.0,16.0,16,0.00,,,0.00,weatherlink.com 1.10,2013-09-16 20:50:00,
2013-09-16 14:05:00,88.0,36.0,29.78,West,259,7.0,16.0,16,0.00,,,0.00,weatherlink.com 1.10,2013-09-16 21:05:00,
2013-09-16 14:20:00,88.4,37.0,29.77,WSW,255,6.0,16.0,16,0.00,,,0.00,weatherlink.com 1.10,2013-09-16 21:20:00,
2013-09-16 14:35:00,88.7,37.0,29.77,West,259,11.0,17.0,16,0.00,,,0.00,weatherlink.com 1.10,2013-09-16 21:35:00,
2013-09-16 14:50:00,89.0,37.0,29.76,WNW,283,9.0,18.0,16,0.00,,,0.00,weatherlink.com 1.10,2013-09-16 21:50:00,
2013-09-16 15:05:00,88.4,38.0,29.76,WNW,295,13.0,16.0,17,0.00,,,0.00,weatherlink.com 1.10,2013-09-16 22:05:00,
2013-09-16 15:20:00,88.3,38.0,29.76,WNW,285,9.0,23.0,17,0.00,,,0.00,weatherlink.com 1.10,2013-09-16 22:20:00,
2013-09-16 15:35:00,88.0,38.0,29.75,WSW,238,14.0,18.0,17,0.00,,,0.00,weatherlink.com 1.10,2013-09-16 22:35:00,
2013-09-16 15:50:00,88.1,37.0,29.75,NNW,334,1.0,13.0,16,0.00,,,0.00,weatherlink.com 1.10,2013-09-16 22:50:00,
2013-09-16 16:05:00,87.9,38.0,29.75,WNW,295,3.0,13.0,17,0.00,,,0.00,weatherlink.com 1.10,2013-09-16 23:05:00,
2013-09-16 16:20:00,87.8,39.0,29.75,NW,314,8.0,13.0,18,0.00,,,0.00,weatherlink.com 1.10,2013-09-16 23:20:00,
2013-09-16 16:35:00,87.2,39.0,29.74,West,279,3.0,15.0,18,0.00,,,0.00,weatherlink.com 1.10,2013-09-16 23:35:00,
2013-09-16 16:51:00,86.5,40.0,29.74,WNW,295,6.0,22.0,19,0.00,,,0.00,weatherlink.com 1.10,2013-09-16 23:51:00,
2013-09-16 17:06:00,85.9,39.0,29.74,West,264,13.0,19.0,19,0.00,,,0.00,weatherlink.com 1.10,2013-09-17 00:06:00,
2013-09-16 17:21:00,85.7,39.0,29.75,West,278,6.0,12.0,19,0.00,,,0.00,weatherlink.com 1.10,2013-09-17 00:21:00,
2013-09-16 17:36:00,85.6,39.0,29.75,West,264,5.0,12.0,19,0.00,,,0.00,weatherlink.com 1.10,2013-09-17 00:36:00,
2013-09-16 17:51:00,84.3,38.0,29.75,WNW,295,6.0,14.0,19,0.00,,,0.00,weatherlink.com 1.10,2013-09-17 00:51:00,
2013-09-16 18:06:00,83.4,38.0,29.75,West,275,6.0,16.0,20,0.00,,,0.00,weatherlink.com 1.10,2013-09-17 01:06:00,
2013-09-16 18:21:00,82.3,37.0,29.74,West,260,9.0,15.0,20,0.00,,,0.00,weatherlink.com 1.10,2013-09-17 01:21:00,
2013-09-16 18:36:00,80.5,37.0,29.74,WNW,293,4.0,14.0,21,0.00,,,0.00,weatherlink.com 1.10,2013-09-17 01:36:00,
2013-09-16 18:51:00,79.4,35.0,29.73,West,266,8.0,14.0,20,0.00,,,0.00,weatherlink.com 1.10,2013-09-17 01:51:00,
2013-09-16 19:06:00,78.7,34.0,29.73,West,262,13.0,23.0,20,0.00,,,0.00,weatherlink.com 1.10,2013-09-17 02:06:00,
2013-09-16 19:22:00,77.7,35.0,29.73,West,264,13.0,19.0,21,0.00,,,0.00,weatherlink.com 1.10,2013-09-17 02:22:00,
2013-09-16 19:36:00,77.2,32.0,29.73,West,259,13.0,19.0,19,0.00,,,0.00,weatherlink.com 1.10,2013-09-17 02:36:00,
2013-09-16 19:51:00,77.1,26.0,29.74,West,265,15.0,21.0,15,0.00,,,0.00,weatherlink.com 1.10,2013-09-17 02:51:00,
2013-09-16 20:06:00,77.0,22.0,29.75,WSW,238,11.0,19.0,13,0.00,,,0.00,weatherlink.com 1.10,2013-09-17 03:06:00,
2013-09-16 20:21:00,77.0,21.0,29.75,WNW,282,10.0,18.0,12,0.00,,,0.00,weatherlink.com 1.10,2013-09-17 03:21:00,
2013-09-16 20:36:00,76.4,22.0,29.76,WSW,255,10.0,16.0,13,0.00,,,0.00,weatherlink.com 1.10,2013-09-17 03:36:00,
2013-09-16 20:51:00,75.9,25.0,29.76,West,266,11.0,19.0,15,0.00,,,0.00,weatherlink.com 1.10,2013-09-17 03:51:00,
2013-09-16 21:06:00,75.6,28.0,29.76,West,281,12.0,16.0,17,0.00,,,0.00,weatherlink.com 1.10,2013-09-17 04:06:00,
2013-09-16 21:21:00,74.8,31.0,29.77,WNW,288,7.0,15.0,20,0.00,,,0.00,weatherlink.com 1.10,2013-09-17 04:21:00,
2013-09-16 21:36:00,74.1,31.0,29.77,West,281,5.0,16.0,20,0.00,,,0.00,weatherlink.com 1.10,2013-09-17 04:36:00,
2013-09-16 21:51:00,73.3,31.0,29.77,West,281,3.0,10.0,21,0.00,,,0.00,weatherlink.com 1.10,2013-09-17 04:51:00,
2013-09-16 22:06:00,72.4,31.0,29.77,West,264,7.0,11.0,22,0.00,,,0.00,weatherlink.com 1.10,2013-09-17 05:06:00,
2013-09-16 22:21:00,72.2,31.0,29.77,WSW,257,11.0,14.0,22,0.00,,,0.00,weatherlink.com 1.10,2013-09-17 05:21:00,
2013-09-16 22:36:00,72.5,30.0,29.78,West,266,5.0,14.0,21,0.00,,,0.00,weatherlink.com 1.10,2013-09-17 05:36:00,
2013-09-16 22:51:00,72.3,30.0,29.78,West,277,3.0,10.0,21,0.00,,,0.00,weatherlink.com 1.10,2013-09-17 05:51:00,
2013-09-16 23:06:00,71.7,31.0,29.78,WNW,288,2.0,10.0,22,0.00,,,0.00,weatherlink.com 1.10,2013-09-17 06:06:00,
2013-09-16 23:21:00,71.5,33.0,29.78,West,272,7.0,12.0,24,0.00,,,0.00,weatherlink.com 1.10,2013-09-17 06:21:00,
2013-09-16 23:36:00,71.3,33.0,29.77,SW,228,5.0,10.0,24,0.00,,,0.00,weatherlink.com 1.10,2013-09-17 06:36:00,
2013-09-16 23:51:00,70.7,33.0,29.77,WSW,245,9.0,10.0,25,0.00,,,0.00,weatherlink.com 1.10,2013-09-17 06:51:00,